Location: Newark
(48.1236°N, 0.7169°W)
Time: 20:33:09
(UTC+00:00)

Envisat - Pass Details

Date: 19 November 2019
Orbit: 764 x 766 km, 98.1° (Epoch: 11 December)

Event Time Altitude Azimuth Distance (km) Brightness Sun altitude
Rises 18:56:09 0° 197° (SSW) 3,221 6.5 -25.6°
Reaches altitude 10° 18:58:47 10° 210° (SSW) 2,299 5.8 -26.1°
Maximum altitude 19:03:02 27° 267° (W) 1,458 5.1 -26.8°
Drops below altitude 10° 19:07:19 10° 324° (NW) 2,313 5.9 -27.5°
Sets 19:09:59 0° 337° (NNW) 3,244 6.6 -27.9°
